Weather History for KMBS - October, 2013

Change the Weather History Date:

Wednesday, October 23, 2013

  Actual Average Record
Temperature  
Mean Temperature 40 °F 47 °F  
Max Temperature 47 °F 56 °F 69 °F (1998)
Min Temperature 32 °F 38 °F 28 °F (1997)
Degree Days  
Heating Degree Days 25    
Month to date heating degree days 225  
Since 1 July heating degree days 385  
Cooling Degree Days 0    
Month to date cooling degree days 5  
Year to date cooling degree days 668  
Moisture  
Dew Point 30 °F    
Average Humidity 66    
Maximum Humidity 92    
Minimum Humidity 40    
Precipitation  
Precipitation T in 0.08 in 0.86 in (2001)
Month to date precipitation 2.29 1.96  
Year to date precipitation 28.20 26.31  
Snow  
Snow 0.00 in - - ()
Month to date snowfall 0.0  
Since 1 July snowfall 0.0  
Since 1 September snowfall 0.0  
Snow Depth 0.00 in    
Sea Level Pressure  
Sea Level Pressure 29.89 in    
Wind  
Wind Speed 9 mph (WNW)    
Max Wind Speed 21 mph    
Max Gust Speed 26 mph    
Visibility 10 miles    
Events Rain    
T = Trace of Precipitation, MM = Missing Value Source: NWS Daily Summary

Daily Weather History Graph

Daily Weather History Graph

Search for Another Location

Airport or City:

Trip Planner

Search our weather history database for the weather conditions in past years. The results will help you decide how hot, cold, wet, or windy it might be!

Date:

Astronomy

Oct. 23, 2013 Rise Set
Actual Time 8:00 AM EDT 6:39 PM EDT
Civil Twilight 7:31 AM EDT 7:09 PM EDT
Nautical Twilight 6:57 AM EDT 7:42 PM EDT
Astronomical Twilight 6:24 AM EDT 8:15 PM EDT
Moon 10:05 PM EDT (10/23) 12:21 PM EDT (10/23)
Length of Visible Light 11h 37m
Length of Day
10h 39m
Waning Gibbous, 79% of the Moon is Illuminated
Oct 23
Waning Gibbous
Oct 26
Last Quarter
Nov 3
New
Nov 10
First Quarter
Nov 17
Full

Hourly Weather History & Observations

Time (EDT) Temp. Windchill Dew Point Humidity Pressure Visibility Wind Dir Wind Speed Gust Speed Precip Events Conditions
12:53 AM 39.0 °F 35.7 °F 33.1 °F 79% 29.88 in 10.0 mi WNW 4.6 mph - N/A   Overcast
1:53 AM 39.0 °F 34.0 °F 33.1 °F 79% 29.88 in 10.0 mi NW 6.9 mph - N/A   Overcast
2:53 AM 37.0 °F 31.0 °F 33.1 °F 86% 29.87 in 10.0 mi NNW 8.1 mph - N/A   Mostly Cloudy
3:53 AM 36.0 °F 31.1 °F 33.1 °F 89% 29.86 in 10.0 mi NW 5.8 mph - N/A   Mostly Cloudy
4:53 AM 37.0 °F 31.0 °F 33.1 °F 86% 29.86 in 10.0 mi NNW 8.1 mph - N/A   Overcast
5:53 AM 37.0 °F 32.4 °F 33.1 °F 86% 29.86 in 10.0 mi North 5.8 mph - N/A   Overcast
6:53 AM 37.0 °F 33.3 °F 33.1 °F 86% 29.86 in 10.0 mi NNW 4.6 mph - N/A   Overcast
7:53 AM 36.0 °F 30.3 °F 33.1 °F 89% 29.88 in 10.0 mi WNW 6.9 mph - N/A   Mostly Cloudy
8:53 AM 36.0 °F 29.6 °F 33.1 °F 89% 29.89 in 10.0 mi WNW 8.1 mph - N/A   Clear
9:53 AM 39.0 °F 34.8 °F 33.1 °F 79% 29.89 in 10.0 mi NW 5.8 mph - N/A   Clear
10:53 AM 42.1 °F 38.4 °F 30.9 °F 65% 29.89 in 10.0 mi West 5.8 mph - N/A   Clear
11:53 AM 43.0 °F 38.2 °F 30.0 °F 60% 29.90 in 10.0 mi WNW 8.1 mph - N/A   Scattered Clouds
12:53 PM 44.1 °F 40.8 °F 28.0 °F 53% 29.89 in 10.0 mi West 5.8 mph - N/A   Scattered Clouds
1:53 PM 46.0 °F 39.6 °F 24.1 °F 42% 29.87 in 10.0 mi West 15.0 mph 21.9 mph N/A   Mostly Cloudy
2:53 PM 46.0 °F 40.6 °F 25.0 °F 44% 29.87 in 10.0 mi West 11.5 mph - N/A   Overcast
3:53 PM 45.0 °F 37.4 °F 21.9 °F 40% 29.86 in 10.0 mi West 18.4 mph - N/A   Mostly Cloudy
4:53 PM 44.1 °F 36.8 °F 26.1 °F 49% 29.88 in 10.0 mi West 16.1 mph - 0.00 in Rain Light Rain
5:53 PM 41.0 °F 34.3 °F 28.0 °F 60% 29.90 in 10.0 mi WNW 11.5 mph 23.0 mph N/A   Mostly Cloudy
6:53 PM 39.0 °F 33.4 °F 27.0 °F 62% 29.91 in 10.0 mi WNW 8.1 mph - N/A   Partly Cloudy
7:53 PM 36.0 °F 29.6 °F 27.0 °F 70% 29.92 in 10.0 mi West 8.1 mph - N/A   Clear
8:53 PM 34.0 °F 28.0 °F 28.0 °F 79% 29.92 in 10.0 mi West 6.9 mph - N/A   Clear
9:53 PM 34.0 °F 26.6 °F 28.0 °F 79% 29.93 in 10.0 mi West 9.2 mph - N/A   Clear
10:53 PM 32.0 °F 25.6 °F 28.0 °F 85% 29.93 in 10.0 mi West 6.9 mph - N/A   Scattered Clouds
11:53 PM 33.1 °F 26.1 °F 28.0 °F 82% 29.93 in 10.0 mi WSW 8.1 mph - N/A   Scattered Clouds